When you browse on this site, cookies collect data to enhance your experience and personalize the content and advertising you see.
Visit our Privacy Policy to learn more. By continuing to use the site, you agree to this use of cookies and data.

Hourly Weather Nice

Today, 9 July, Thursday

Time Temperature Precipitation Wind Pressure Humidity
00:00 +24°C° 0 mm 1 mps 759 mmHg 74%
01:00 +24°C° 0 mm 1 mps 759 mmHg 73%
02:00 +24°C° 0 mm 1 mps 759 mmHg 73%
03:00 +24°C° 0 mm 1 mps 759 mmHg 72%
04:00 +25°C° 0 mm 1 mps 759 mmHg 70%
05:00 +26°C° 0 mm 1 mps 759 mmHg 68%
06:00 +27°C° 0 mm 1 mps 759 mmHg 66%
07:00 +28°C° 0 mm 1 mps 759 mmHg 63%
08:00 +29°C° 0 mm 2 mps 759 mmHg 60%
09:00 +30°C° 0 mm 2 mps 760 mmHg 57%
10:00 +31°C° 0 mm 2 mps 760 mmHg 55%
11:00 +31°C° 0 mm 2 mps 760 mmHg 53%
12:00 +32°C° 0 mm 2 mps 760 mmHg 50%
13:00 +32°C° 0 mm 2 mps 759 mmHg 50%
14:00 +32°C° 0 mm 2 mps 759 mmHg 49%
15:00 +32°C° 0 mm 2 mps 758 mmHg 48%
16:00 +31°C° 0 mm 1 mps 758 mmHg 52%
17:00 +30°C° 0 mm 1 mps 758 mmHg 56%
18:00 +29°C° 0 mm 1 mps 758 mmHg 60%
19:00 +28°C° 0 mm 1 mps 758 mmHg 63%
20:00 +27°C° 0 mm 2 mps 759 mmHg 66%
21:00 +25°C° 0 mm 2 mps 759 mmHg 69%
22:00 +25°C° 0 mm 1 mps 759 mmHg 69%
23:00 +25°C° 0 mm 1 mps 759 mmHg 69%

Tomorrow, 10 July, Friday

Time Temperature Precipitation Wind Pressure Humidity
00:00 +25°C° 0 mm 1 mps 758 mmHg 69%
01:00 +25°C° 0 mm 1 mps 758 mmHg 68%
02:00 +25°C° 0 mm 1 mps 758 mmHg 68%
03:00 +24°C° 0 mm 1 mps 758 mmHg 68%
04:00 +25°C° 0 mm 1 mps 758 mmHg 66%
05:00 +26°C° 0 mm 1 mps 758 mmHg 64%
06:00 +27°C° 0 mm 1 mps 758 mmHg 62%
07:00 +28°C° 0 mm 1 mps 758 mmHg 59%
08:00 +30°C° 0 mm 1 mps 758 mmHg 56%
09:00 +31°C° 0 mm 2 mps 758 mmHg 53%
10:00 +31°C° 0 mm 2 mps 758 mmHg 50%
11:00 +32°C° 0 mm 2 mps 758 mmHg 47%
12:00 +34°C° 0 mm 2 mps 758 mmHg 45%
13:00 +32°C° 0.3 mm 2 mps 757 mmHg 47%
14:00 +32°C° 0.3 mm 2 mps 757 mmHg 50%
15:00 +31°C° 0.3 mm 2 mps 756 mmHg 53%
16:00 +30°C° 0.2 mm 2 mps 756 mmHg 58%
17:00 +29°C° 0.2 mm 2 mps 756 mmHg 64%
18:00 +28°C° 0.2 mm 2 mps 756 mmHg 69%
19:00 +27°C° 0 mm 2 mps 756 mmHg 70%
20:00 +27°C° 0 mm 2 mps 757 mmHg 71%
21:00 +26°C° 0 mm 2 mps 757 mmHg 73%
22:00 +26°C° 0 mm 2 mps 757 mmHg 72%
23:00 +26°C° 0 mm 2 mps 756 mmHg 72%

Day after tomorrow, 11 July, Saturday

Time Temperature Precipitation Wind Pressure Humidity
00:00 +25°C° 0 mm 2 mps 756 mmHg 71%
01:00 +25°C° 0 mm 2 mps 756 mmHg 72%
02:00 +25°C° 0 mm 3 mps 756 mmHg 73%
03:00 +24°C° 0 mm 3 mps 756 mmHg 74%
04:00 +25°C° 0 mm 3 mps 756 mmHg 73%
05:00 +26°C° 0 mm 2 mps 756 mmHg 72%
06:00 +27°C° 0 mm 2 mps 756 mmHg 70%
07:00 +28°C° 0 mm 3 mps 756 mmHg 67%
08:00 +29°C° 0 mm 3 mps 756 mmHg 64%
09:00 +30°C° 0 mm 3 mps 756 mmHg 61%
10:00 +30°C° 0.1 mm 3 mps 756 mmHg 61%
11:00 +31°C° 0.1 mm 3 mps 756 mmHg 61%
12:00 +31°C° 0.1 mm 3 mps 756 mmHg 62%
13:00 +31°C° 0.3 mm 3 mps 756 mmHg 63%
14:00 +31°C° 0.3 mm 3 mps 756 mmHg 64%
15:00 +30°C° 0.3 mm 3 mps 755 mmHg 66%
16:00 +30°C° 0.1 mm 3 mps 755 mmHg 70%
17:00 +29°C° 0.1 mm 3 mps 755 mmHg 74%
18:00 +28°C° 0.1 mm 4 mps 755 mmHg 78%
19:00 +27°C° 0 mm 4 mps 756 mmHg 81%
20:00 +26°C° 0 mm 4 mps 756 mmHg 85%
21:00 +25°C° 0 mm 3 mps 757 mmHg 89%
22:00 +25°C° 0 mm 3 mps 757 mmHg 88%
23:00 +24°C° 0 mm 3 mps 757 mmHg 87%

12 July, Sunday

Time Temperature Precipitation Wind Pressure Humidity
00:00 +24°C° 0 mm 3 mps 757 mmHg 86%
01:00 +24°C° 0 mm 3 mps 758 mmHg 84%
02:00 +24°C° 0 mm 3 mps 758 mmHg 83%
03:00 +22°C° 0 mm 3 mps 758 mmHg 81%
04:00 +23°C° 0 mm 4 mps 758 mmHg 77%
05:00 +25°C° 0 mm 4 mps 759 mmHg 73%
06:00 +26°C° 0 mm 4 mps 759 mmHg 69%
07:00 +27°C° 0 mm 4 mps 759 mmHg 65%
08:00 +28°C° 0 mm 4 mps 760 mmHg 60%
09:00 +30°C° 0 mm 4 mps 760 mmHg 55%
10:00 +29°C° 0 mm 4 mps 760 mmHg 57%
11:00 +29°C° 0 mm 4 mps 760 mmHg 58%
12:00 +29°C° 0 mm 4 mps 760 mmHg 59%
13:00 +29°C° 0.1 mm 3 mps 760 mmHg 60%
14:00 +29°C° 0.1 mm 2 mps 760 mmHg 60%
15:00 +28°C° 0.1 mm 2 mps 760 mmHg 61%
16:00 +28°C° 0 mm 1 mps 760 mmHg 62%
17:00 +28°C° 0 mm 1 mps 760 mmHg 64%
18:00 +27°C° 0 mm 1 mps 760 mmHg 65%
19:00 +26°C° 0 mm 1 mps 760 mmHg 67%
20:00 +26°C° 0 mm 1 mps 761 mmHg 70%
21:00 +25°C° 0 mm 1 mps 761 mmHg 72%
22:00 +25°C° 0 mm 1 mps 761 mmHg 72%
23:00 +24°C° 0 mm 1 mps 761 mmHg 73%

13 July, Monday

Time Temperature Precipitation Wind Pressure Humidity
00:00 +24°C° 0 mm 2 mps 761 mmHg 74%
01:00 +24°C° 0 mm 1 mps 761 mmHg 73%
02:00 +24°C° 0 mm 1 mps 761 mmHg 72%
03:00 +25°C° 0 mm 1 mps 761 mmHg 71%
04:00 +25°C° 0 mm 2 mps 761 mmHg 71%
05:00 +25°C° 0 mm 2 mps 761 mmHg 72%
06:00 +25°C° 0 mm 3 mps 761 mmHg 72%
07:00 +26°C° 0 mm 3 mps 761 mmHg 69%
08:00 +27°C° 0 mm 3 mps 761 mmHg 65%
09:00 +28°C° 0 mm 3 mps 761 mmHg 62%
10:00 +28°C° 0.1 mm 3 mps 761 mmHg 62%
11:00 +29°C° 0.1 mm 2 mps 760 mmHg 63%
12:00 +29°C° 0.1 mm 2 mps 760 mmHg 63%
13:00 +29°C° 0.2 mm 2 mps 760 mmHg 63%
14:00 +29°C° 0.2 mm 2 mps 759 mmHg 62%
15:00 +29°C° 0.2 mm 1 mps 759 mmHg 62%
16:00 +28°C° 0.1 mm 1 mps 759 mmHg 63%
17:00 +28°C° 0.1 mm 1 mps 759 mmHg 64%
18:00 +27°C° 0.1 mm 1 mps 758 mmHg 65%
19:00 +26°C° 0 mm 1 mps 759 mmHg 68%
20:00 +25°C° 0 mm 1 mps 759 mmHg 70%
21:00 +24°C° 0 mm 1 mps 759 mmHg 72%
22:00 +24°C° 0 mm 1 mps 759 mmHg 73%
23:00 +24°C° 0 mm 1 mps 759 mmHg 75%

14 July, Tuesday

Time Temperature Precipitation Wind Pressure Humidity
00:00 +24°C° 0 mm 1 mps 759 mmHg 76%
01:00 +23°C° 0 mm 1 mps 758 mmHg 76%
02:00 +23°C° 0 mm 1 mps 758 mmHg 77%
03:00 +23°C° 0 mm 1 mps 758 mmHg 77%
04:00 +24°C° 0 mm 1 mps 758 mmHg 75%
05:00 +25°C° 0 mm 1 mps 758 mmHg 73%
06:00 +25°C° 0 mm 1 mps 758 mmHg 71%
07:00 +26°C° 0 mm 1 mps 758 mmHg 67%
08:00 +28°C° 0 mm 2 mps 758 mmHg 63%
09:00 +29°C° 0 mm 3 mps 758 mmHg 59%
10:00 +29°C° 0.1 mm 3 mps 758 mmHg 59%
11:00 +29°C° 0.1 mm 3 mps 758 mmHg 59%
12:00 +30°C° 0.1 mm 3 mps 757 mmHg 59%
13:00 +29°C° 0.1 mm 3 mps 757 mmHg 61%
14:00 +29°C° 0.1 mm 2 mps 757 mmHg 64%
15:00 +28°C° 0.1 mm 1 mps 757 mmHg 66%
16:00 +28°C° 0.1 mm 1 mps 757 mmHg 67%
17:00 +27°C° 0.1 mm 1 mps 757 mmHg 69%
18:00 +27°C° 0.1 mm 1 mps 757 mmHg 70%
19:00 +26°C° 0 mm 1 mps 757 mmHg 72%
20:00 +25°C° 0 mm 1 mps 757 mmHg 74%
21:00 +24°C° 0 mm 1 mps 758 mmHg 76%
22:00 +24°C° 0 mm 1 mps 758 mmHg 77%
23:00 +24°C° 0 mm 1 mps 758 mmHg 78%
Show more